Regional Weather Roundup
Issued by NWS

Home | Current Version | Previous Version | Graphics & Text | Print | Product List | Glossary On
Versions: 1 2 3 4 5 6 7 8 9 10 11 12 13 14 15 16 17 18 19 20 21 22 23 24 25 26 27 28 29 30 31 32 33 34 35 36 37 38 39 40 41 42 43 44 45 46 47 48 49 50
000
ASUS43 KLOT 092200
RWRIL

ILLINOIS REGIONAL WEATHER ROUNDUP
NATIONAL WEATHER SERVICE CHICAGO/ROMEOVILLE IL
500 PM CDT WED JUL 09 2014

NOTE: "FAIR" INDICATES FEW OR NO CLOUDS BELOW 12,000 FEET WITH NO
SIGNIFICANT WEATHER AND/OR OBSTRUCTIONS TO VISIBILITY.

* THESE STATIONS ARE NOT UNDER NWS QUALITY CONTROL. THEY ALSO MAY NOT
  REPORT WEATHER SUCH AS PRECIPITATION OR FOG.

ILZ001-002-007-009-015-016-024-092300-
NORTHWEST ILLINOIS

CITY           SKY/WX    TMP DP  RH WIND       PRES   REMARKS
MOLINE         MOSUNNY   79  55  43 NW10      30.01R
STERLING*      PTSUNNY   79  57  47 N9        30.01R HX  80
$$

ILZ003-004-008-010-011-017-018-092300-
NORTH CENTRAL ILLINOIS

CITY           SKY/WX    TMP DP  RH WIND       PRES   REMARKS
ROCKFORD       MOSUNNY   76  52  43 N14       30.01R
FREEPORT*      MOSUNNY   74  52  46 NW10G17   30.03S
$$

ILZ005-006-012>014-019>023-092300-
NORTHEAST ILLINOIS

CITY           SKY/WX    TMP DP  RH WIND       PRES   REMARKS
CHICAGO-OHARE  MOSUNNY   78  48  34 NW18      29.96R
CHICAGO-MIDWAY MOSUNNY   78  58  49 NE16      29.95S
AURORA         SUNNY     77  54  44 NW10      29.98S
WAUKEGAN       MOSUNNY   74  49  41 NW8       29.97R
DUPAGE AIRPORT SUNNY     78  51  38 NW17G23   29.98R
WHEELING       SUNNY     77  51  40 NW16      29.98R
NORTHERLY ISL    N/A     69  59  70 E6          N/A
$$

LMZ740>746-092300-
SOUTHERN LAKE MICHIGAN

STATION/POSITION SKY/WX   TEMP    WIND        PRES    VSBY  WAVE
                          AIR SEA DIR/SP/G                  HT/PER
                          (F)     (DEG/KT/KT) (MB)    (MI)  (FT/S)
SOUTHERN BUOY              58 57  110/  2/  4 1015.3R         0
WAUKEGAN HARBOR            68     140/  7/  9 1016.3R
HARRISON CRIB              66     100/  9/ 10   N/A
BURNHAM HARBOR             68      70/  5/  7   N/A
CALUMET HARBOR             69      50/  7/ 10 1015.7R
MICHIGAN CITY              68      20/  8/  9   N/A
$$

ILZ025>027-034>036-040-047-049-050-058-095>099-092300-
WEST-CENTRAL ILLINOIS

CITY           SKY/WX    TMP DP  RH WIND       PRES   REMARKS
QUINCY         SUNNY     78  56  46 NW12      30.03R
MACOMB*        MOSUNNY   77  57  50 N10       30.04S
$$

ILZ028>032-037-038-041>044-048-051>054-059>061-092300-
CENTRAL ILLINOIS

CITY           SKY/WX    TMP DP  RH WIND       PRES   REMARKS
DECATUR        SUNNY     80  57  45 NW8G20    30.00R HX  80
PEORIA         MOSUNNY   79  54  41 N8        30.00S
SPRINGFIELD    SUNNY     81  57  43 NW8       30.01R HX  81
TAYLORVILLE    NOT AVBL
$$

ILZ033-039-045-046-055>057-062-063-092300-
EAST-CENTRAL ILLINOIS

CITY           SKY/WX    TMP DP  RH WIND       PRES   REMARKS
CHAMPAIGN      MOSUNNY   77  57  50 NW9       29.99S
MATTOON        SUNNY     81  58  45 NW13      29.98S HX  81
$$

ILZ079-100>102-092300-
SOUTHWEST ILLINOIS

CITY           SKY/WX    TMP DP  RH WIND       PRES   REMARKS
ALTON          MOSUNNY   81  61  50 NW9       30.00R HX  81
BELLEVILLE     MOSUNNY   84  63  48 N12       29.98R HX  85
CAHOKIA*       PTSUNNY   84  60  44 NW12      29.98S HX  84
SPARTA*        PTSUNNY   81  61  50 NW5       30.00R HX  81
$$

ILZ064>066-069>071-074>076-080>082-084>086-088>090-092>094-092300-
SOUTH-CENTRAL ILLINOIS

CITY           SKY/WX    TMP DP  RH WIND       PRES   REMARKS
CARBONDALE     MOSUNNY   83  60  45 W3        29.98F HX  83
MT. VERNON     MOSUNNY   82  63  51 N3        29.99R HX  83
$$

ILZ067-068-072-073-078-083-087-091-092300-
SOUTHEAST ILLINOIS

CITY           SKY/WX    TMP DP  RH WIND       PRES   REMARKS
HARRISBURG*    MOSUNNY   81  63  54 N5        29.99S HX  82
$$

ABBREVIATIONS USED IN REMARKS
   TC - TEMPERATURE IN CELSIUS
  WCI - WIND CHILL INDEX
   HX - HEAT INDEX
  VSB - VISIBILITY
$$



USA.gov is the U.S. government's official web portal to all federal, state and local government web resources and services.